SV7JLF-3 Weather Reports


time (UTC)temp
F
wind
direction
speed
knots
gust
knots
rain 1hr
in
rain 24hr
in
rain mn
in
humidity
%
barometer
mb
20260506153050 81 215 7.0 0.0 0.00 0.00 0.01 36 1013.9
20260506153010 81 200 7.0 0.0 0.00 0.00 0.01 35 1013.8
20260506152953 81 205 7.8 12.2 0.00 0.01 0.01 36 1013.4
20260506152511 81 192 7.0 0.0 0.00 0.00 0.01 36 1013.9
20260506152051 82 220 7.0 0.0 0.00 0.00 0.01 37 1013.8
20260506151954 82 224 7.8 11.3 0.00 0.01 0.01 36 1013.3
20260506151550 81 227 6.1 0.0 0.00 0.00 0.01 38 1013.8
20260506151027 82 212 7.0 0.0 0.00 0.00 0.01 36 1013.8
20260506150523 82 196 7.8 0.0 0.00 0.00 0.01 37 1013.9
20260506150119 82 199 6.1 0.0 0.00 0.00 0.01 38 1013.8
20260506150021 82 198 5.2 0.0 0.00 0.00 0.01 37 1013.8
20260506145954 82 195 7.8 13.9 0.00 0.01 0.01 37 1013.6
20260506145542 82 207 5.2 0.0 0.00 0.00 0.01 39 1013.9
20260506145015 83 205 6.1 0.0 0.00 0.00 0.01 38 1013.8
20260506144954 83 235 4.3 10.4 0.00 0.01 0.01 38 1013.4
20260506144618 82 229 6.1 0.0 0.00 0.00 0.01 38 1013.9
20260506144515 83 235 5.2 0.0 0.00 0.00 0.01 36 1013.9
20260506144028 83 225 4.3 0.0 0.00 0.00 0.01 34 1013.9
20260506143953 83 228 5.2 10.4 0.00 0.01 0.01 38 1013.6
20260506143548 82 285 3.5 0.0 0.00 0.00 0.01 42 1014.0
20260506143118 82 318 4.3 0.0 0.00 0.00 0.01 41 1013.9
20260506143025 82 342 4.3 0.0 0.00 0.00 0.01 39 1014.0
20260506142518 83 49 3.5 0.0 0.00 0.00 0.01 41 1013.8
20260506142017 83 37 2.6 0.0 0.00 0.00 0.01 39 1013.9
20260506141954 83 20 1.7 5.2 0.00 0.01 0.01 39 1013.6
20260506141533 82 65 2.6 0.0 0.00 0.00 0.01 39 1013.9
20260506141510 82 68 2.6 0.0 0.00 0.00 0.01 38 1014.0
20260506141012 83 34 4.3 0.0 0.00 0.00 0.01 40 1013.9
20260506140953 82 37 1.7 7.8 0.00 0.01 0.01 40 1013.6
20260506140532 82 42 5.2 0.0 0.00 0.00 0.01 39 1014.0
20260506140054 82 61 6.1 0.0 0.00 0.00 0.01 40 1014.0
20260506140022 83 45 6.1 0.0 0.00 0.00 0.01 40 1014.0
20260506135523 83 43 5.2 0.0 0.00 0.00 0.01 41 1014.0
20260506135017 83 67 5.2 0.0 0.00 0.00 0.01 40 1014.2
20260506134613 82 86 5.2 0.0 0.00 0.00 0.01 40 1014.1
20260506134535 82 93 4.3 0.0 0.00 0.00 0.01 42 1014.1
20260506134014 82 51 5.2 0.0 0.00 0.00 0.01 42 1014.2
20260506133954 82 68 5.2 8.7 0.00 0.01 0.01 42 1013.9
20260506133554 82 80 4.3 0.0 0.00 0.00 0.01 41 1014.1
20260506133053 81 49 5.2 0.0 0.00 0.00 0.01 42 1014.1
20260506133026 82 78 5.2 0.0 0.00 0.00 0.01 42 1014.2
20260506132954 82 46 5.2 10.4 0.00 0.01 0.01 43 1013.8
20260506132524 82 37 5.2 0.0 0.00 0.00 0.01 41 1014.3
20260506132021 81 68 5.2 0.0 0.00 0.00 0.01 42 1014.4
20260506131612 81 68 6.1 0.0 0.00 0.00 0.01 41 1014.3
20260506131520 81 77 6.1 0.0 0.00 0.00 0.01 41 1014.5
20260506131041 81 55 6.1 0.0 0.00 0.00 0.01 42 1014.7
20260506130954 81 66 7.0 10.4 0.00 0.01 0.01 42 1014.3
20260506130512 81 66 6.1 0.0 0.00 0.00 0.01 42 1014.7
20260506130111 80 71 7.0 0.0 0.00 0.00 0.01 42 1014.6
20260506130011 81 49 7.8 0.0 0.00 0.00 0.01 40 1014.7
20260506125954 81 50 6.1 10.4 0.00 0.01 0.01 42 1014.3
20260506125520 81 63 7.8 0.0 0.00 0.00 0.01 41 1014.7
20260506125021 81 65 7.0 0.0 0.00 0.00 0.01 41 1014.7
20260506124955 81 61 7.8 11.3 0.00 0.01 0.01 41 1014.5
20260506124528 80 27 7.8 0.0 0.00 0.00 0.01 41 1014.7
20260506124513 81 64 7.8 0.0 0.00 0.00 0.01 41 1014.8
20260506124013 81 71 8.7 0.0 0.00 0.00 0.01 40 1014.9
20260506123954 81 76 8.7 12.2 0.00 0.01 0.01 40 1014.4
20260506123530 81 63 8.7 0.0 0.00 0.00 0.01 38 1014.8
20260506123047 81 85 8.7 0.0 0.00 0.00 0.01 38 1014.9
20260506123022 81 90 8.7 0.0 0.00 0.00 0.01 38 1014.8
20260506122955 81 82 7.8 12.2 0.00 0.01 0.01 38 1014.6
20260506122522 82 53 7.8 0.0 0.00 0.00 0.01 39 1014.9
20260506122015 82 77 7.8 0.0 0.00 0.00 0.01 39 1014.9
20260506121954 82 92 7.8 11.3 0.00 0.01 0.01 41 1014.6
20260506121606 81 94 7.0 0.0 0.00 0.00 0.01 41 1014.9
20260506121536 81 64 7.0 0.0 0.00 0.00 0.01 40 1015.0
20260506121015 81 63 7.0 0.0 0.00 0.00 0.01 43 1015.0
20260506120954 81 109 4.3 11.3 0.00 0.01 0.01 42 1014.7
20260506120509 82 102 6.1 0.0 0.00 0.00 0.01 41 1015.1
20260506120108 81 111 4.3 0.0 0.00 0.00 0.01 43 1015.0
20260506120047 81 101 4.3 0.0 0.00 0.00 0.01 44 1015.3
20260506115955 81 71 4.3 10.4 0.01 0.01 0.01 42 1014.7
20260506115527 81 127 3.5 0.0 0.00 0.00 0.01 42 1015.1
20260506115021 81 26 5.2 0.0 0.00 0.00 0.01 42 1015.4
20260506114954 81 48 3.5 10.4 0.01 0.01 0.01 43 1014.9
20260506114604 80 67 5.2 0.0 0.00 0.00 0.01 43 1015.3
20260506114540 81 54 5.2 0.0 0.00 0.00 0.01 42 1015.4
20260506114017 81 39 4.3 0.0 0.00 0.00 0.01 42 1015.3
20260506113954 81 52 4.3 10.4 0.01 0.01 0.01 43 1014.9
20260506113509 80 49 3.5 0.0 0.00 0.00 0.01 41 1015.4
20260506113100 80 98 2.6 0.0 0.00 0.00 0.01 43 1015.2
20260506113026 80 78 2.6 0.0 0.00 0.00 0.01 43 1015.3
20260506112526 80 105 2.6 0.0 0.00 0.00 0.01 38 1015.4
20260506112019 80 86 2.6 0.0 0.00 0.00 0.01 40 1015.6
20260506111618 79 84 1.7 0.0 0.00 0.00 0.01 41 1015.4
20260506111517 80 17 1.7 0.0 0.00 0.00 0.01 40 1015.6
20260506111011 79 43 1.7 0.0 0.00 0.00 0.01 38 1015.8
20260506110955 79 31 1.7 5.2 0.01 0.01 0.01 40 1015.3
20260506110510 79 26 3.5 0.0 0.00 0.00 0.00 38 1015.6
20260506110029 79 31 4.3 0.0 0.00 0.00 0.00 38 1015.8
20260506110008 79 31 5.2 0.0 0.00 0.00 0.00 38 1015.7
20260506105954 79 88 5.2 8.7 0.00 0.00 0.00 37 1015.3
20260506105520 79 90 3.5 0.0 0.00 0.00 0.00 39 1015.8
20260506105037 79 103 2.6 0.0 0.00 0.00 0.00 38 1015.8
20260506104955 79 88 2.6 7.0 0.00 0.00 0.00 38 1015.4
20260506104624 78 89 3.5 0.0 0.00 0.00 0.00 39 1015.6
20260506104516 78 110 3.5 0.0 0.00 0.00 0.00 39 1015.8
20260506104024 78 35 3.5 0.0 0.00 0.00 0.00 41 1015.9
20260506103954 78 68 3.5 6.1 0.00 0.00 0.00 41 1015.5
20260506103521 78 36 3.5 0.0 0.00 0.00 0.00 41 1015.9
20260506103039 77 106 2.6 0.0 0.00 0.00 0.00 39 1016.0
20260506103013 77 89 2.6 0.0 0.00 0.00 0.00 40 1016.0
20260506102954 77 101 4.3 6.1 0.00 0.00 0.00 41 1015.6
20260506102512 77 76 2.6 0.0 0.00 0.00 0.00 43 1016.2
20260506102032 77 94 2.6 0.0 0.00 0.00 0.00 42 1016.1
20260506101552 77 46 3.5 0.0 0.00 0.00 0.00 42 1016.2
20260506101525 77 43 3.5 0.0 0.00 0.00 0.00 42 1016.2
20260506101022 77 126 2.6 0.0 0.00 0.00 0.00 42 1016.2
20260506100954 77 111 4.3 6.1 0.00 0.00 0.00 44 1016.0
20260506100514 77 104 2.6 0.0 0.00 0.00 0.00 44 1016.5
20260506100109 76 88 2.6 0.0 0.00 0.00 0.00 45 1016.4
20260506100033 76 101 2.6 0.0 0.00 0.00 0.00 44 1016.6
20260506095954 76 74 3.5 7.0 0.00 0.00 0.00 44 1016.1
20260506095510 76 5 2.6 0.0 0.00 0.00 0.00 46 1016.6
20260506095020 76 101 2.6 0.0 0.00 0.00 0.00 45 1016.4
20260506094954 76 98 3.5 6.1 0.00 0.00 0.00 45 1016.2
20260506094624 75 98 1.7 0.0 0.00 0.00 0.00 44 1016.5
20260506094521 75 39 1.7 0.0 0.00 0.00 0.00 44 1016.5
20260506094011 75 24 2.6 0.0 0.00 0.00 0.00 45 1016.6
20260506093955 75 25 1.7 7.0 0.00 0.00 0.00 46 1016.3
20260506093510 76 111 3.5 0.0 0.00 0.00 0.00 45 1016.6
20260506093117 75 82 3.5 0.0 0.00 0.00 0.00 47 1016.5
20260506093024 75 92 2.6 0.0 0.00 0.00 0.00 49 1016.6
20260506092955 75 85 2.6 7.0 0.00 0.00 0.00 49 1016.2
20260506092517 74 85 2.6 0.0 0.00 0.00 0.00 49 1016.6
20260506092035 75 47 2.6 0.0 0.00 0.00 0.00 47 1016.6
20260506091954 74 47 2.6 6.1 0.00 0.00 0.00 46 1016.2
20260506091610 74 57 2.6 0.0 0.00 0.00 0.00 49 1016.6
20260506091513 74 86 1.7 0.0 0.00 0.00 0.00 49 1016.6
20260506091032 74 33 1.7 0.0 0.00 0.00 0.00 47 1016.7
20260506090955 74 38 1.7 4.3 0.00 0.00 0.00 47 1016.3
20260506090523 73 68 1.7 0.0 0.00 0.00 0.00 49 1016.7
20260506090021 73 108 2.6 0.0 0.00 0.00 0.00 50 1016.6
20260506090002 73 108 2.6 0.0 0.00 0.00 0.00 47 1016.6
20260506085512 73 97 1.7 0.0 0.00 0.00 0.00 49 1016.6
20260506085011 72 128 1.7 0.0 0.00 0.00 0.00 51 1016.7
20260506084955 72 127 0.9 2.6 0.00 0.00 0.00 50 1016.3
20260506084543 72 92 1.7 0.0 0.00 0.00 0.00 49 1016.6
20260506084522 72 63 1.7 0.0 0.00 0.00 0.00 49 1016.6
20260506084017 72 112 1.7 0.0 0.00 0.00 0.00 49 1016.7
20260506083955 71 104 0.9 2.6 0.00 0.00 0.00 49 1016.3
20260506083532 71 69 1.7 0.0 0.00 0.00 0.00 50 1016.8
20260506083047 71 342 1.7 0.0 0.00 0.00 0.00 49 1016.7
20260506083022 71 342 1.7 0.0 0.00 0.00 0.00 49 1016.7
20260506082955 71 345 1.7 2.6 0.00 0.00 0.00 51 1016.4
20260506082516 71 343 1.7 0.0 0.00 0.00 0.00 50 1016.6
20260506082029 71 67 1.7 0.0 0.00 0.00 0.00 50 1016.7
20260506081955 71 67 1.7 2.6 0.00 0.00 0.00 50 1016.3
20260506081546 70 9 1.7 0.0 0.00 0.00 0.00 51 1016.7
20260506081518 71 5 1.7 0.0 0.00 0.00 0.00 51 1016.7
20260506081031 70 128 1.7 0.0 0.00 0.00 0.00 53 1016.7
20260506080955 70 115 0.9 2.6 0.00 0.00 0.00 52 1016.4
20260506080546 70 79 1.7 0.0 0.00 0.00 0.00 52 1016.6
20260506080127 69 194 1.7 0.0 0.00 0.00 0.00 55 1016.7
20260506073520 68 64 1.7 0.0 0.00 0.00 0.00 56 1016.7
20260506073033 67 21 0.9 0.0 0.00 0.00 0.00 57 1016.6
20260506073008 67 21 0.9 0.0 0.00 0.00 0.00 57 1016.6
20260506072957 67 20 1.7 2.6 0.00 0.00 0.00 57 1016.5
20260506072524 67 120 0.9 0.0 0.00 0.00 0.00 57 1016.6
20260506072013 67 360 0.9 0.0 0.00 0.00 0.00 59 1016.7
20260506071955 67 321 0.9 1.7 0.00 0.00 0.00 59 1016.5
20260506071529 67 304 0.9 0.0 0.00 0.00 0.00 59 1016.7
20260506071507 66 305 1.7 0.0 0.00 0.00 0.00 59 1016.7
20260506071017 67 42 1.7 0.0 0.00 0.00 0.00 58 1016.8
20260506070956 67 42 1.7 2.6 0.00 0.00 0.00 59 1016.6
20260506070529 67 115 1.7 0.0 0.00 0.00 0.00 60 1016.9
20260506070133 66 55 1.7 0.0 0.00 0.00 0.00 61 1016.7
20260506062025 62 69 0.9 0.0 0.00 0.00 0.00 68 1017.2
20260506061955 62 85 0.0 1.7 0.00 0.00 0.00 69 1016.9
20260506061630 61 85 0.9 0.0 0.00 0.00 0.00 69 1017.2
20260506061541 61 85 0.9 0.0 0.00 0.00 0.00 70 1017.3
20260506061052 60 34 0.9 0.0 0.00 0.00 0.00 72 1017.3
20260506060957 60 13 0.9 1.7 0.00 0.00 0.00 72 1017.0
20260506060526 60 355 0.9 0.0 0.00 0.00 0.00 72 1017.4
20260506051031 53 325 1.7 0.0 0.00 0.00 0.00 84 1017.4
20260506050955 53 325 0.9 2.6 0.00 0.00 0.00 84 1017.0
20260506050523 53 325 0.0 0.0 0.00 0.00 0.00 85 1017.2
20260506050145 52 325 0.0 0.0 0.00 0.00 0.00 86 1017.2
20260506045038 51 205 0.0 0.0 0.00 0.00 0.00 87 1017.1
20260506044956 51 205 0.0 1.7 0.00 0.00 0.00 87 1016.7
20260506044615 50 205 0.0 0.0 0.00 0.00 0.00 87 1017.1
20260506044528 51 203 0.0 0.0 0.00 0.00 0.00 87 1017.1
20260506044023 50 189 0.0 0.0 0.00 0.00 0.00 87 1017.1
20260506043528 50 209 0.0 0.0 0.00 0.00 0.00 87 1016.8
20260506043107 49 202 0.0 0.0 0.00 0.00 0.00 87 1016.8
20260506043024 49 202 0.0 0.0 0.00 0.00 0.00 87 1016.9
20260506042956 49 200 0.0 0.0 0.00 0.00 0.00 87 1016.4
20260506042537 49 200 0.0 0.0 0.00 0.00 0.00 87 1016.8
20260506042027 49 173 0.0 0.0 0.00 0.00 0.00 87 1016.7
20260506041612 48 160 0.0 0.0 0.00 0.00 0.00 87 1016.7
20260506041522 48 160 0.0 0.0 0.00 0.00 0.00 86 1016.9
20260506041034 48 160 0.0 0.0 0.00 0.00 0.00 86 1016.8
20260506040957 48 160 0.0 0.9 0.00 0.00 0.00 86 1016.3
20260506040525 48 160 0.0 0.0 0.00 0.00 0.00 86 1016.6
20260506040112 47 160 0.0 0.0 0.00 0.00 0.00 85 1016.8
20260506040038 48 160 0.0 0.0 0.00 0.00 0.00 85 1016.7
20260506035955 48 250 0.0 1.7 0.00 0.00 0.00 85 1016.3
20260506035528 48 42 0.0 0.0 0.00 0.00 0.00 85 1016.7
20260506035021 48 42 0.9 0.0 0.00 0.00 0.00 85 1016.5
20260506034956 48 129 0.0 2.6 0.00 0.00 0.00 84 1016.3
20260506034545 47 126 0.9 0.0 0.00 0.00 0.00 84 1016.5
20260506034526 48 126 0.9 0.0 0.00 0.00 0.00 84 1016.6
20260506034040 48 126 1.7 0.0 0.00 0.00 0.00 84 1016.4
20260506033956 48 126 0.9 2.6 0.00 0.00 0.00 84 1016.1
20260506033552 48 126 0.9 0.0 0.00 0.00 0.00 83 1016.4
20260506033108 48 169 0.9 0.0 0.00 0.00 0.00 83 1016.4
20260506033026 48 169 0.9 0.0 0.00 0.00 0.00 83 1016.5
20260506032956 48 169 0.9 2.6 0.00 0.00 0.00 83 1016.1
20260506032522 49 169 1.7 0.0 0.00 0.00 0.00 83 1016.5
20260506032027 49 169 1.7 0.0 0.00 0.00 0.00 82 1016.4
20260506031957 49 170 2.6 2.6 0.00 0.00 0.00 82 1016.2
20260506031613 48 207 0.9 0.0 0.00 0.00 0.00 82 1016.3
20260506031525 49 207 0.9 0.0 0.00 0.00 0.00 82 1016.5
20260506031050 49 207 0.0 0.0 0.00 0.00 0.00 82 1016.4
20260506030955 49 207 0.0 1.7 0.00 0.00 0.00 82 1016.0
20260506030524 50 207 0.0 0.0 0.00 0.00 0.00 82 1016.2
20260506030049 49 207 0.0 0.0 0.00 0.00 0.00 82 1016.2
20260506030034 50 207 0.0 0.0 0.00 0.00 0.00 82 1016.2
20260506025956 50 207 0.0 0.9 0.00 0.00 0.00 82 1015.7
20260506025528 50 207 0.0 0.0 0.00 0.00 0.00 81 1016.2
20260506025039 50 207 1.7 0.0 0.00 0.00 0.00 81 1016.1
20260506024957 50 207 0.0 4.3 0.00 0.00 0.00 81 1015.6
20260506024554 50 207 3.5 0.0 0.00 0.00 0.00 81 1016.1
20260506024521 50 207 3.5 0.0 0.00 0.00 0.00 81 1016.1
20260506024027 50 213 3.5 0.0 0.00 0.00 0.00 81 1015.9
20260506023957 50 212 2.6 4.3 0.00 0.00 0.00 81 1015.6
20260506023519 50 208 3.5 0.0 0.00 0.00 0.00 81 1015.9
20260506023031 50 210 3.5 0.0 0.00 0.00 0.00 81 1016.1
20260506023010 50 211 3.5 0.0 0.00 0.00 0.00 81 1016.1
20260506022955 50 210 3.5 4.3 0.00 0.00 0.00 81 1015.8
20260506022523 50 219 3.5 0.0 0.00 0.00 0.00 81 1015.9
20260506022020 50 223 4.3 0.0 0.00 0.00 0.00 81 1016.1
20260506021543 50 211 4.3 0.0 0.00 0.00 0.00 81 1015.9
20260506021528 50 208 4.3 0.0 0.00 0.00 0.00 81 1016.0
20260506021024 50 212 4.3 0.0 0.00 0.00 0.00 81 1015.9
20260506020956 50 213 4.3 6.1 0.00 0.00 0.00 81 1015.7
20260506020534 50 223 4.3 0.0 0.00 0.00 0.00 81 1016.0
20260506020044 50 209 4.3 0.0 0.00 0.00 0.00 81 1015.8
20260506020025 50 212 4.3 0.0 0.00 0.00 0.00 81 1015.9
20260506015956 50 220 5.2 6.1 0.00 0.00 0.00 81 1015.6
20260506015558 50 225 3.5 0.0 0.00 0.00 0.00 81 1016.1
20260506015048 50 211 4.3 0.0 0.00 0.00 0.00 82 1016.1
20260506014956 50 216 4.3 6.1 0.00 0.00 0.00 82 1015.6
20260506014609 50 210 4.3 0.0 0.00 0.00 0.00 82 1016.0
20260506014541 50 219 4.3 0.0 0.00 0.00 0.00 82 1016.0
20260506014033 50 221 4.3 0.0 0.00 0.00 0.00 82 1016.0
20260506013958 50 219 5.2 7.0 0.00 0.00 0.00 82 1015.6
20260506013528 50 212 4.3 0.0 0.00 0.00 0.00 82 1016.0
20260506013045 50 219 3.5 0.0 0.00 0.00 0.00 82 1015.9
20260506013029 50 220 3.5 0.0 0.00 0.00 0.00 82 1015.9
20260506012548 50 213 3.5 0.0 0.00 0.00 0.00 83 1016.0
20260506012024 50 219 4.3 0.0 0.00 0.00 0.00 83 1016.0
20260506011956 50 221 4.3 6.1 0.00 0.00 0.00 83 1015.8
20260506011632 49 218 4.3 0.0 0.00 0.00 0.00 83 1016.0
20260506011556 50 221 4.3 0.0 0.00 0.00 0.00 83 1016.0
20260506011049 50 214 4.3 0.0 0.00 0.00 0.00 83 1016.3
20260506010955 50 218 4.3 6.1 0.00 0.00 0.00 83 1015.8
20260506010544 50 218 4.3 0.0 0.00 0.00 0.00 83 1016.1
20260506010137 49 217 4.3 0.0 0.00 0.00 0.00 83 1016.0
20260506010039 50 221 3.5 0.0 0.00 0.00 0.00 83 1016.1
20260506005550 50 221 2.6 0.0 0.00 0.00 0.00 83 1016.1
20260506005044 50 230 2.6 0.0 0.00 0.00 0.00 83 1016.1
20260506004956 50 230 2.6 2.6 0.00 0.00 0.00 83 1015.9
20260506004536 50 230 2.6 0.0 0.00 0.00 0.00 83 1016.3
20260506004505 50 230 2.6 0.0 0.00 0.00 0.00 83 1016.2
20260506004054 50 231 2.6 0.0 0.00 0.00 0.00 82 1016.2
20260506003956 50 231 2.6 2.6 0.00 0.00 0.00 82 1015.9
20260506003526 50 232 1.7 0.0 0.00 0.00 0.00 82 1016.2
20260506003121 50 232 2.6 0.0 0.00 0.00 0.00 82 1016.2
20260506003023 51 232 2.6 0.0 0.00 0.00 0.00 82 1016.4
20260506002957 51 232 1.7 4.3 0.00 0.00 0.00 82 1015.9
20260506002534 51 232 2.6 0.0 0.00 0.00 0.00 82 1016.3
20260506002023 51 250 2.6 0.0 0.00 0.00 0.00 82 1016.2
20260506001956 51 250 1.7 2.6 0.00 0.00 0.00 82 1015.8
20260506001620 51 250 1.7 0.0 0.00 0.00 0.00 82 1016.2
20260506001552 51 250 2.6 0.0 0.00 0.00 0.00 82 1016.2
20260506001029 51 250 2.6 0.0 0.00 0.00 0.00 82 1016.2
20260506000957 51 250 1.7 2.6 0.00 0.00 0.00 82 1015.9
20260506000545 51 250 2.6 0.0 0.00 0.00 0.00 82 1016.1
20260506000042 51 250 2.6 0.0 0.00 0.00 0.00 81 1016.1
20260506000021 51 250 2.6 0.0 0.00 0.00 0.00 81 1016.1
20260505235957 51 250 2.6 2.6 0.00 0.00 0.00 81 1015.6
20260505235530 51 248 2.6 0.0 0.00 0.00 0.00 81 1016.1
20260505235028 51 243 2.6 0.0 0.00 0.00 0.00 81 1016.2
20260505234957 51 243 3.5 4.3 0.00 0.00 0.00 81 1015.6
20260505234556 51 233 2.6 0.0 0.00 0.00 0.00 81 1016.0
20260505234534 51 233 2.6 0.0 0.00 0.00 0.00 81 1016.0
20260505234051 52 232 2.6 0.0 0.00 0.00 0.00 81 1016.0
20260505233957 51 232 2.6 4.3 0.00 0.00 0.00 81 1015.7
20260505233527 52 227 2.6 0.0 0.00 0.00 0.00 81 1016.1
20260505233035 52 243 3.5 0.0 0.00 0.00 0.00 82 1016.2
20260505233012 51 243 3.5 0.0 0.00 0.00 0.00 82 1016.2
20260505232957 52 243 2.6 4.3 0.00 0.00 0.00 82 1015.7
20260505232528 52 247 4.3 0.0 0.00 0.00 0.00 82 1016.0
20260505232024 52 241 3.5 0.0 0.00 0.00 0.00 82 1016.0
20260505231956 52 242 4.3 5.2 0.00 0.00 0.00 82 1015.7
20260505231540 52 243 2.6 0.0 0.00 0.00 0.00 82 1016.0
20260505231521 51 244 2.6 0.0 0.00 0.00 0.00 82 1016.0
20260505231030 52 231 1.7 0.0 0.00 0.00 0.00 82 1016.0
20260505230956 52 228 1.7 2.6 0.00 0.00 0.00 82 1015.8
20260505230526 52 224 1.7 0.0 0.00 0.00 0.00 82 1016.0
20260505230058 51 223 1.7 0.0 0.00 0.00 0.00 82 1016.1
20260505230033 52 223 1.7 0.0 0.00 0.00 0.00 82 1016.2
20260505225956 52 223 1.7 2.6 0.00 0.00 0.00 82 1015.8
20260505225532 52 222 1.7 0.0 0.00 0.00 0.00 82 1016.2
20260505225024 52 222 3.5 0.0 0.00 0.00 0.00 83 1016.2
20260505224957 52 222 2.6 5.2 0.00 0.00 0.00 83 1015.9
20260505224600 51 222 3.5 0.0 0.00 0.00 0.00 83 1016.3
20260505224519 52 223 4.3 0.0 0.00 0.00 0.00 83 1016.2
20260505224052 52 226 4.3 0.0 0.00 0.00 0.00 84 1016.3
20260505223957 52 225 4.3 5.2 0.00 0.00 0.00 84 1015.8
20260505223530 51 227 4.3 0.0 0.00 0.00 0.00 84 1016.2
20260505223150 51 223 3.5 0.0 0.00 0.00 0.00 84 1016.1
20260505223043 51 221 3.5 0.0 0.00 0.00 0.00 84 1016.3
20260505222957 51 219 4.3 5.2 0.00 0.00 0.00 84 1015.9
20260505222553 51 221 3.5 0.0 0.00 0.00 0.00 84 1016.3
20260505222021 51 223 3.5 0.0 0.00 0.00 0.00 83 1016.4
20260505221610 51 210 2.6 0.0 0.00 0.00 0.00 83 1016.4
20260505221555 51 210 2.6 0.0 0.00 0.00 0.00 83 1016.6
20260505221030 52 211 2.6 0.0 0.00 0.00 0.00 83 1016.4
20260505220958 52 211 2.6 2.6 0.00 0.00 0.00 83 1016.1
20260505220521 52 211 2.6 0.0 0.00 0.00 0.00 82 1016.6
20260505220055 51 211 3.5 0.0 0.00 0.00 0.00 82 1016.3
20260505220032 52 211 3.5 0.0 0.00 0.00 0.00 82 1016.3
20260505215956 52 211 2.6 4.3 0.00 0.00 0.00 82 1016.0
20260505215529 52 211 3.5 0.0 0.00 0.00 0.00 82 1016.3
20260505215015 52 211 2.6 0.0 0.00 0.00 0.00 81 1016.4
20260505214956 52 211 2.6 4.3 0.00 0.00 0.00 81 1015.9
20260505214600 52 224 2.6 0.0 0.00 0.00 0.00 81 1016.4
20260505214533 52 224 2.6 0.0 0.00 0.00 0.00 81 1016.2
20260505214027 53 225 2.6 0.0 0.00 0.00 0.00 81 1016.3
20260505213957 53 225 1.7 2.6 0.00 0.00 0.00 81 1015.9
20260505213516 53 225 1.7 0.0 0.00 0.00 0.00 81 1016.2
20260505213106 53 225 1.7 0.0 0.00 0.00 0.00 81 1016.3
20260505213052 53 225 1.7 0.0 0.00 0.00 0.00 81 1016.2
20260505212957 53 225 2.6 2.6 0.00 0.00 0.00 81 1015.9
20260505212529 53 227 0.9 0.0 0.00 0.00 0.00 81 1016.2
20260505212043 53 227 0.9 0.0 0.00 0.00 0.00 81 1016.1
20260505211957 53 227 0.9 2.6 0.00 0.00 0.00 81 1015.8
20260505211539 54 227 1.7 0.0 0.00 0.00 0.00 81 1016.1
20260505211510 53 227 1.7 0.0 0.00 0.00 0.00 81 1016.2
20260505211030 54 227 2.6 0.0 0.00 0.00 0.00 81 1016.3
20260505210957 53 227 2.6 4.3 0.00 0.00 0.00 81 1015.8
20260505210524 53 228 3.5 0.0 0.00 0.00 0.00 81 1016.3
20260505210037 54 230 3.5 0.0 0.00 0.00 0.00 81 1016.2
20260505210013 53 231 3.5 0.0 0.00 0.00 0.00 81 1016.3
20260505205956 54 231 4.3 4.3 0.00 0.00 0.00 81 1015.9
20260505205528 54 215 2.6 0.0 0.00 0.00 0.00 81 1016.3
20260505205021 54 204 3.5 0.0 0.00 0.00 0.00 80 1016.2
20260505204957 54 206 1.7 6.1 0.00 0.00 0.00 80 1015.8
20260505204536 54 208 3.5 0.0 0.00 0.00 0.00 80 1016.2
20260505204513 54 208 4.3 0.0 0.00 0.00 0.00 80 1016.1
20260505204048 54 174 4.3 0.0 0.00 0.00 0.00 81 1016.1
20260505203520 54 238 4.3 0.0 0.00 0.00 0.00 80 1016.1
20260505203124 54 234 4.3 0.0 0.00 0.00 0.00 80 1015.9
20260505203050 54 240 4.3 0.0 0.00 0.00 0.00 80 1016.2
20260505202958 54 242 4.3 6.1 0.00 0.00 0.00 80 1015.6
20260505202527 55 248 2.6 0.0 0.00 0.00 0.00 80 1016.0
20260505202040 55 228 2.6 0.0 0.00 0.00 0.00 79 1016.1
20260505201957 55 218 1.7 2.6 0.00 0.00 0.00 79 1015.9
20260505201609 55 200 2.6 0.0 0.00 0.00 0.00 79 1016.3
20260505201530 55 200 2.6 0.0 0.00 0.00 0.00 79 1016.0
20260505201045 56 190 2.6 0.0 0.00 0.00 0.00 77 1016.1
20260505200958 56 190 1.7 2.6 0.00 0.00 0.00 77 1015.7
20260505200536 56 190 2.6 0.0 0.00 0.00 0.00 77 1015.9
20260505200052 56 190 2.6 0.0 0.00 0.00 0.00 76 1015.8
20260505200028 56 190 2.6 0.0 0.00 0.00 0.00 76 1016.0
20260505195957 56 190 1.7 4.3 0.00 0.00 0.00 76 1015.7
20260505195525 57 198 1.7 0.0 0.00 0.00 0.00 76 1016.1
20260505195038 57 257 0.9 0.0 0.00 0.00 0.00 75 1016.0
20260505194958 57 257 0.9 2.6 0.00 0.00 0.00 75 1015.5
20260505194553 57 257 0.9 0.0 0.00 0.00 0.00 75 1015.8
20260505194524 57 257 0.9 0.0 0.00 0.00 0.00 75 1015.8
20260505194022 57 257 0.9 0.0 0.00 0.00 0.00 74 1015.9
20260505193959 57 257 0.9 2.6 0.00 0.00 0.00 73 1015.5
20260505193533 58 257 0.9 0.0 0.00 0.00 0.00 73 1015.9
20260505193058 57 258 1.7 0.0 0.00 0.00 0.00 72 1015.8
20260505193023 58 258 1.7 0.0 0.00 0.00 0.00 72 1015.8
20260505192957 58 258 0.9 2.6 0.00 0.00 0.00 72 1015.5
20260505192519 58 258 2.6 0.0 0.00 0.00 0.00 72 1015.7
20260505192034 58 258 2.6 0.0 0.00 0.00 0.00 71 1015.6
20260505191957 58 258 1.7 2.6 0.00 0.00 0.00 71 1015.1
20260505191630 58 258 2.6 0.0 0.00 0.00 0.00 71 1015.4
20260505191524 59 258 2.6 0.0 0.00 0.00 0.00 71 1015.4
20260505191025 59 259 1.7 0.0 0.00 0.00 0.00 69 1015.3
20260505190957 59 259 1.7 2.6 0.00 0.00 0.00 69 1014.9
20260505190531 59 259 2.6 0.0 0.00 0.00 0.00 69 1015.3
20260505190113 59 259 3.5 0.0 0.00 0.00 0.00 68 1015.0
20260505190027 60 256 3.5 0.0 0.00 0.00 0.00 67 1015.3
20260505185958 60 255 2.6 4.3 0.00 0.00 0.00 67 1014.6
20260505185541 61 242 2.6 0.0 0.00 0.00 0.00 66 1014.9
20260505185031 61 264 1.7 0.0 0.00 0.00 0.00 65 1014.8
20260505184957 61 264 1.7 2.6 0.00 0.00 0.00 64 1014.5
20260505184627 61 264 1.7 0.0 0.00 0.00 0.00 63 1014.7
20260505184551 62 264 1.7 0.0 0.00 0.00 0.00 63 1014.7
20260505184027 63 348 0.9 0.0 0.00 0.00 0.00 61 1014.7
20260505183957 63 348 0.9 2.6 0.00 0.00 0.00 61 1014.3
20260505183542 63 67 1.7 0.0 0.00 0.00 0.00 60 1014.8
20260505183048 63 67 1.7 0.0 0.00 0.00 0.00 58 1014.6
20260505183029 63 67 1.7 0.0 0.00 0.00 0.00 58 1014.7
20260505182957 63 67 1.7 2.6 0.00 0.00 0.00 57 1014.4
20260505182525 63 44 1.7 0.0 0.00 0.00 0.00 57 1014.8
20260505182041 64 87 1.7 0.0 0.00 0.00 0.00 58 1014.5
20260505181958 64 87 0.9 2.6 0.00 0.00 0.00 58 1014.2
20260505181634 63 87 1.7 0.0 0.00 0.00 0.00 57 1014.5
20260505181550 64 87 1.7 0.0 0.00 0.00 0.00 57 1014.3
20260505181028 64 84 0.9 0.0 0.00 0.00 0.00 56 1014.3
20260505180958 64 77 0.9 2.6 0.00 0.00 0.00 56 1013.9
20260505180531 64 186 0.9 0.0 0.00 0.00 0.00 56 1014.2
20260505180118 64 186 1.7 0.0 0.00 0.00 0.00 55 1014.3
20260505180030 64 175 2.6 0.0 0.00 0.00 0.00 55 1014.3
20260505175957 64 175 0.9 6.1 0.00 0.00 0.00 55 1013.8
20260505175521 65 113 4.3 0.0 0.00 0.00 0.00 55 1014.2
20260505175033 65 108 5.2 0.0 0.00 0.00 0.00 54 1014.1
20260505174958 65 103 3.5 7.8 0.00 0.00 0.00 54 1013.8
20260505174624 64 92 6.1 0.0 0.00 0.00 0.00 53 1013.9
20260505174530 65 91 5.2 0.0 0.00 0.00 0.00 53 1014.1
20260505174019 65 106 6.1 0.0 0.00 0.00 0.00 53 1014.0
20260505173957 65 103 5.2 8.7 0.00 0.00 0.00 53 1013.7
20260505173532 66 113 4.3 0.0 0.00 0.00 0.00 52 1014.0
20260505173032 66 101 3.5 0.0 0.00 0.00 0.00 52 1013.9
20260505173003 66 94 3.5 0.0 0.00 0.00 0.00 52 1014.1
20260505172957 66 108 3.5 7.0 0.00 0.00 0.00 52 1013.6
20260505172522 66 122 5.2 0.0 0.00 0.00 0.00 50 1014.1
20260505172030 67 155 7.0 0.0 0.00 0.00 0.00 49 1014.1
20260505171957 67 141 5.2 12.2 0.00 0.00 0.00 49 1013.7
20260505171627 67 126 8.7 0.0 0.00 0.00 0.00 48 1013.9
20260505171521 67 113 8.7 0.0 0.00 0.00 0.00 48 1014.0
20260505171032 68 116 9.6 0.0 0.00 0.00 0.00 47 1013.7
20260505170958 68 108 9.6 14.8 0.00 0.00 0.00 46 1013.4
20260505170530 68 116 10.4 0.0 0.00 0.00 0.00 46 1013.7
20260505170137 68 115 10.4 0.0 0.00 0.00 0.00 45 1013.6
20260505170045 69 126 10.4 0.0 0.00 0.00 0.00 45 1013.8
20260505165541 69 113 11.3 0.0 0.00 0.00 0.00 45 1013.7
20260505165059 69 128 11.3 0.0 0.00 0.00 0.00 45 1013.7
20260505164958 69 124 12.2 17.4 0.00 0.00 0.00 45 1013.3
20260505164607 69 140 11.3 0.0 0.00 0.00 0.00 44 1013.3
20260505164532 70 137 11.3 0.0 0.00 0.00 0.00 44 1013.4
20260505164020 71 116 11.3 0.0 0.00 0.00 0.00 43 1013.5
20260505163958 71 103 13.0 17.4 0.00 0.00 0.00 43 1013.1
20260505163556 71 85 12.2 0.0 0.00 0.00 0.00 43 1013.7
20260505163046 72 92 12.2 0.0 0.00 0.00 0.00 43 1013.5
20260505163025 72 84 12.2 0.0 0.00 0.00 0.00 43 1013.5
20260505162520 73 101 10.4 0.0 0.00 0.00 0.00 44 1013.6
20260505162050 73 90 10.4 0.0 0.00 0.00 0.00 45 1013.4
20260505161958 73 96 9.6 13.9 0.00 0.00 0.00 45 1013.0
20260505161629 73 81 10.4 0.0 0.00 0.00 0.00 44 1013.3
20260505161525 73 88 10.4 0.0 0.00 0.00 0.00 44 1013.4
20260505161039 73 107 10.4 0.0 0.00 0.00 0.00 45 1013.2
20260505160958 73 99 10.4 13.9 0.00 0.00 0.00 45 1012.8
20260505160527 74 97 10.4 0.0 0.00 0.00 0.00 45 1013.2
20260505160125 73 96 11.3 0.0 0.00 0.00 0.00 44 1013.1